Location: Unspecified
(0.0000°N, 0.0000°E)
Time: 03:53:53
(UTC+01:00)

PROBA 2 - Visible Passes

Search period start: 06 December 2016 00:00
Search period end: 16 December 2016 00:00
Orbit: 707 x 725 km, 98.3° (Epoch: 05 December)

Date Brightness Start Highest point End Pass type
(mag) Time Alt. Az. Time Alt. Az. Time Alt. Az.
06 Dec ? 19:31:55 10° N 19:36:38 63° WNW 19:41:21 10° SSW visible
07 Dec ? 06:19:53 10° ESE 06:22:20 14° ENE 06:24:47 10° NE visible
07 Dec ? 20:20:41 10° NW 20:23:25 15° WNW 20:26:10 10° WSW visible
08 Dec ? 19:27:44 10° N 19:32:28 72° WNW 19:37:15 10° SSW visible
09 Dec ? 06:16:19 10° E 06:18:12 12° ENE 06:20:04 10° NE visible
09 Dec ? 20:16:11 10° NW 20:19:16 17° WNW 20:22:22 10° WSW visible
10 Dec ? 19:23:34 10° N 19:28:19 82° WNW 19:33:06 10° SSW visible
11 Dec ? 06:13:08 10° E 06:14:03 10° ENE 06:14:59 10° ENE visible
11 Dec ? 20:11:43 10° NNW 20:15:07 20° WNW 20:18:32 10° WSW visible
12 Dec ? 19:19:24 10° NNE 19:24:10 88° E 19:28:58 10° SSW visible
13 Dec ? 20:07:19 10° NNW 20:10:58 22° WNW 20:14:38 10° SW visible
14 Dec ? 19:15:15 10° NNE 19:20:01 78° ESE 19:24:47 10° S visible
15 Dec ? 20:02:57 10° NNW 20:06:49 25° WNW 20:10:41 10° SW visible
